| time (UTC) | temp F | wind direction | speed knots | gust knots | rain 1hr in | rain 24hr in | rain mn in | humidity % | barometer mb |
| 20260504223031 | 80 | 319 | 8.7 | 16.5 | 0.00 | 0.00 | 0.00 | 57 | 1007.0 |
| 20260504221526 | 80 | 288 | 7.0 | 17.4 | 0.00 | 0.00 | 0.00 | 57 | 1007.2 |
| 20260504220031 | 80 | 301 | 7.0 | 20.0 | 0.00 | 0.00 | 0.00 | 57 | 1007.4 |
| 20260504214531 | 80 | 325 | 7.8 | 15.6 | 0.00 | 0.00 | 0.00 | 56 | 1007.8 |
| 20260504213029 | 80 | 352 | 7.0 | 16.5 | 0.00 | 0.00 | 0.00 | 56 | 1007.8 |
| 20260504211536 | 80 | 320 | 8.7 | 20.9 | 0.00 | 0.00 | 0.00 | 55 | 1008.1 |
| 20260504210026 | 80 | 342 | 7.0 | 14.8 | 0.00 | 0.00 | 0.00 | 56 | 1008.2 |
| 20260504204532 | 80 | 330 | 6.1 | 15.6 | 0.00 | 0.00 | 0.00 | 55 | 1008.7 |
| 20260504203029 | 80 | 301 | 6.1 | 18.2 | 0.00 | 0.00 | 0.00 | 53 | 1009.1 |
| 20260504201529 | 80 | 290 | 7.8 | 16.5 | 0.00 | 0.00 | 0.00 | 52 | 1009.3 |
| 20260504200029 | 80 | 360 | 7.8 | 17.4 | 0.00 | 0.00 | 0.00 | 52 | 1009.5 |
| 20260504194528 | 79 | 351 | 7.8 | 14.8 | 0.00 | 0.00 | 0.00 | 53 | 1009.9 |
| 20260504193030 | 79 | 318 | 7.8 | 16.5 | 0.00 | 0.00 | 0.00 | 52 | 1009.9 |
| 20260504191529 | 79 | 290 | 7.8 | 15.6 | 0.00 | 0.00 | 0.00 | 51 | 1010.3 |
| 20260504190028 | 79 | 331 | 7.0 | 15.6 | 0.00 | 0.00 | 0.00 | 51 | 1010.3 |
| 20260504184541 | 79 | 288 | 6.1 | 14.8 | 0.00 | 0.00 | 0.00 | 49 | 1010.6 |
| 20260504183029 | 78 | 360 | 7.8 | 18.2 | 0.00 | 0.00 | 0.00 | 49 | 1010.9 |
| 20260504181531 | 78 | 360 | 7.0 | 13.9 | 0.00 | 0.00 | 0.00 | 50 | 1011.1 |
| 20260504180028 | 78 | 351 | 7.8 | 17.4 | 0.00 | 0.00 | 0.00 | 50 | 1011.3 |
| 20260504174529 | 76 | 360 | 7.8 | 16.5 | 0.00 | 0.00 | 0.00 | 50 | 1011.6 |
| 20260504173028 | 76 | 350 | 7.8 | 15.6 | 0.00 | 0.00 | 0.00 | 50 | 1011.8 |
| 20260504171529 | 75 | 317 | 7.8 | 17.4 | 0.00 | 0.00 | 0.00 | 52 | 1012.0 |
| 20260504081531 | 64 | 339 | 2.6 | 9.6 | 0.00 | 0.00 | 0.00 | 62 | 1014.1 |
| 20260504044533 | 68 | 333 | 2.6 | 6.1 | 0.00 | 0.00 | 0.00 | 54 | 1015.9 |
| 20260504043031 | 68 | 327 | 1.7 | 5.2 | 0.00 | 0.00 | 0.00 | 54 | 1016.0 |
| 20260504041534 | 67 | 336 | 1.7 | 4.3 | 0.00 | 0.00 | 0.00 | 54 | 1016.0 |
| 20260504040034 | 67 | 333 | 1.7 | 3.5 | 0.00 | 0.00 | 0.00 | 54 | 1016.1 |
| 20260504034532 | 68 | 328 | 0.9 | 3.5 | 0.00 | 0.00 | 0.00 | 54 | 1016.0 |
| 20260504033030 | 68 | 306 | 0.9 | 3.5 | 0.00 | 0.00 | 0.00 | 53 | 1016.0 |
| 20260504031530 | 69 | 288 | 0.9 | 6.1 | 0.00 | 0.00 | 0.00 | 51 | 1016.0 |
| 20260504030029 | 70 | 292 | 1.7 | 4.3 | 0.00 | 0.00 | 0.00 | 50 | 1015.9 |
| 20260504024531 | 70 | 326 | 1.7 | 4.3 | 0.00 | 0.00 | 0.00 | 49 | 1015.8 |
| 20260504023031 | 71 | 300 | 1.7 | 3.5 | 0.00 | 0.00 | 0.00 | 48 | 1015.8 |
| 20260504021530 | 71 | 319 | 1.7 | 7.0 | 0.00 | 0.00 | 0.00 | 47 | 1015.8 |
| 20260504020031 | 72 | 300 | 2.6 | 6.1 | 0.00 | 0.00 | 0.00 | 45 | 1015.6 |
| 20260504014534 | 73 | 286 | 2.6 | 6.1 | 0.00 | 0.00 | 0.00 | 44 | 1015.8 |
| 20260504013039 | 73 | 319 | 2.6 | 7.8 | 0.00 | 0.00 | 0.00 | 43 | 1015.6 |
| 20260504011530 | 74 | 313 | 1.7 | 7.8 | 0.00 | 0.00 | 0.00 | 41 | 1015.5 |
| 20260504010028 | 75 | 300 | 2.6 | 7.8 | 0.00 | 0.00 | 0.00 | 40 | 1015.4 |
| 20260504004529 | 76 | 338 | 2.6 | 10.4 | 0.00 | 0.00 | 0.00 | 38 | 1015.5 |
| 20260504003033 | 76 | 313 | 4.3 | 11.3 | 0.00 | 0.00 | 0.00 | 38 | 1015.4 |
| 20260504001537 | 77 | 315 | 4.3 | 12.2 | 0.00 | 0.00 | 0.00 | 38 | 1015.4 |
| 20260504000032 | 78 | 329 | 5.2 | 11.3 | 0.00 | 0.00 | 0.00 | 37 | 1015.7 |
| 20260503234534 | 78 | 325 | 5.2 | 13.9 | 0.00 | 0.00 | 0.00 | 37 | 1015.7 |
| 20260503233037 | 78 | 344 | 3.5 | 10.4 | 0.00 | 0.00 | 0.00 | 38 | 1015.7 |
| 20260503231534 | 79 | 344 | 5.2 | 10.4 | 0.00 | 0.00 | 0.00 | 37 | 1015.8 |
| 20260503230031 | 80 | 5 | 4.3 | 10.4 | 0.00 | 0.00 | 0.00 | 32 | 1015.8 |
| 20260503224529 | 80 | 11 | 3.5 | 12.2 | 0.00 | 0.00 | 0.00 | 35 | 1015.9 |